Regional Weather Roundup
Issued by NWS

Home | Current Version | Previous Version | Text Only | Print | Product List | Glossary Off
Versions: 1 2 3 4 5 6 7 8 9 10 11 12 13 14 15 16 17 18 19 20 21 22 23 24 25 26 27 28 29 30 31 32 33 34 35 36 37 38 39 40 41 42 43 44 45 46 47 48 49 50

000
ASUS43 KLOT 291709
RWRIL

ILLINOIS REGIONAL WEATHER ROUNDUP
NATIONAL WEATHER SERVICE CHICAGO/ROMEOVILLE IL
1200 PM CDT FRI JUL 29 2016

NOTE: "FAIR" INDICATES FEW OR NO CLOUDS BELOW 12,000 FEET WITH NO
SIGNIFICANT WEATHER AND/OR OBSTRUCTIONS TO VISIBILITY.

* THESE STATIONS ARE NOT UNDER NWS QUALITY CONTROL. THEY ALSO MAY NOT
  REPORT WEATHER SUCH AS PRECIPITATION OR FOG.

ILZ001-002-007-009-015-016-024-291800-
NORTHWEST ILLINOIS

CITY           SKY/WX    TMP DP  RH WIND       PRES   REMARKS
MOLINE         CLOUDY    79  67  66 W6        29.94S HX  81
STERLING*      PTSUNNY   77  71  82 NE5       29.95F
SAVANNA*       CLOUDY    73  67  83 CALM      29.96R
$$

ILZ003-004-008-010-011-017-018-291800-
NORTH CENTRAL ILLINOIS

CITY           SKY/WX    TMP DP  RH WIND       PRES   REMARKS
ROCKFORD       CLOUDY    79  69  71 N8        29.96F HX  81
FREEPORT*      CLOUDY    71  67  88 N6        29.98F
ROCHELLE*      CLOUDY    76  70  80 CALM      29.95S
DE KALB*       CLOUDY    79  71  75 E3        29.96S HX  82
$$

ILZ005-006-012>014-019>023-291800-
NORTHEAST ILLINOIS

CITY           SKY/WX    TMP DP  RH WIND       PRES   REMARKS
CHICAGO-OHARE  PTSUNNY   80  69  69 NE10      29.93F HX  83
CHICAGO-MIDWAY PTSUNNY   80  68  66 E8        29.92F HX  83
AURORA         PTSUNNY   80  70  71 NW3       29.93F HX  83
LANSING*       CLOUDY    81  69  67 NE3       29.92F HX  84
JOLIET*        PTSUNNY   82  72  73 S3        29.92F HX  86
WAUKEGAN       CLOUDY    74  68  81 NE7       29.95F
DUPAGE AIRPORT CLOUDY    79  69  71 N8        29.93F HX  81
KANKAKEE*      PTSUNNY   82  72  72 S3        29.93F HX  86
WHEELING       CLOUDY    77  69  76 NE9       29.95F
MORRIS*        CLOUDY    76  71  83 CALM      29.92F
ROMEOVILLE*    PTSUNNY   80  68  65 CALM      29.92F HX  83
NORTHERLY ISL    N/A     78  70  76 NE8         N/A  HX  80
$$

LMZ740>746-291800-
SOUTHERN LAKE MICHIGAN

STATION/POSITION SKY/WX   TEMP    WIND        PRES    VSBY  WAVE
                          AIR SEA DIR/SP/G                  HT/PER
                          (F)     (DEG/KT/KT) (MB)    (MI)  (FT/S)
SOUTHERN BUOY              71 74   90/ 16/ 17 1014.0R         3/ 4
WILMETTE HARBOR            74 73  100/  6/  8   N/A           2/ 6
HARRISON CRIB              75      60/  6/  7   N/A
BURNHAM HARBOR             77      40/  6/  9   N/A
CALUMET HARBOR             74      40/  5/  7 1013.3R
BURNS HARBOR               74      10/  4/  8 1014.2S
MICHIGAN CITY              75     350/  7/  7   N/A
MICHIGAN CITY 6N           75 77   10/  4/  6   N/A           1/ 6
ST. JOSEPH                 76 76   80/  6/  8 1013.8R         2
$$

ILZ025>027-034>036-040-047-049-050-058-095>099-291800-
WEST-CENTRAL ILLINOIS

CITY           SKY/WX    TMP DP  RH WIND       PRES   REMARKS
QUINCY         MOSUNNY   77  69  76 NW10      29.98S
GALESBURG*     CLOUDY    74  68  81 W6        29.96S
MACOMB*        CLOUDY    72  67  83 W3        29.99F
JACKSONVILLE*  MOSUNNY   77  69  76 NW7       29.95F
PITTSFIELD*    CLOUDY    77  69  76 NW6       29.99S
$$

ILZ028>032-037-038-041>044-048-051>054-059>061-291800-
CENTRAL ILLINOIS

CITY           SKY/WX    TMP DP  RH WIND       PRES   REMARKS
PONTIAC        MOSUNNY   81  74  77 CALM      29.94S HX  87
BLOOMINGTON    CLOUDY    78  69  73 W9        29.96S HX  80
DECATUR        CLOUDY    81  68  64 W8        29.95R HX  84
PEORIA         CLOUDY    75  70  84 W7        29.96R
LACON*         CLOUDY    77  69  76 SW7       29.93F
LINCOLN*       CLOUDY    80  70  72 W5        29.95R HX  83
SPRINGFIELD    CLOUDY    80  69  69 W10       29.96R HX  83
TAYLORVILLE    CLOUDY    78  70  77 MISG      29.96S HX  80
$$

ILZ033-039-045-046-055>057-062-063-291800-
EAST-CENTRAL ILLINOIS

CITY           SKY/WX    TMP DP  RH WIND       PRES   REMARKS
CHAMPAIGN      CLOUDY    79  70  74 W6        29.94F HX  82
MATTOON        PTSUNNY   83  72  69 SW6       29.94R HX  88
PARIS*         CLOUDY    81  73  76 CALM      29.94S HX  85
$$

ILZ079-100>102-291800-
SOUTHWEST ILLINOIS

CITY           SKY/WX    TMP DP  RH WIND       PRES   REMARKS
ALTON          PTSUNNY   79  70  73 W9        29.97R HX  81
BELLEVILLE     CLOUDY    84  70  61 W7        29.94S HX  88
CAHOKIA*       CLOUDY    86  66  51 W6        29.95S HX  88
SPARTA*        MOSUNNY   80  73  78 W3        29.96F HX  83
$$

ILZ064>066-069>071-074>076-080>082-084>086-088>090-092>094-291800-
SOUTH-CENTRAL ILLINOIS

CITY           SKY/WX    TMP DP  RH WIND       PRES   REMARKS
CARBONDALE     PTSUNNY   83  74  74 VRB7      29.95F HX  89
CAIRO*         PTSUNNY   80  74  82 W3        29.96S HX  85
EFFINGHAM*     MOSUNNY   83  73  72 W7        29.96S HX  89
MARION         PTSUNNY   82  75  78 SW7       29.96S HX  89
MT. VERNON     PTSUNNY   84  72  65 MISG      29.93F HX  89
CENTRALIA*     PTSUNNY   84  74  73 NW7       29.94F HX  91
SALEM*         CLOUDY    83  74  73 NW7       29.95S HX  89
METROPOLIS*    CLOUDY    82  74  77 SW7       29.97S HX  87
$$

ILZ067-068-072-073-078-083-087-091-291800-
SOUTHEAST ILLINOIS

CITY           SKY/WX    TMP DP  RH WIND       PRES   REMARKS
LAWRENCEVILLE  PTSUNNY   82  73  74 VRB7      29.94S HX  87
FLORA*         RAIN      82  75  77 CALM      29.94F HX  89
FAIRFIELD*     PTSUNNY   83  75  76 SE3       29.93F HX  90
HARRISBURG*    PTSUNNY   83  75  78 CALM      29.95F HX  90
ROBINSON*      MOSUNNY   81  74  80 SW3       29.94S HX  86
CARMI*         MOSUNNY   84  76  77 CALM      29.94S HX  92
$$

ABBREVIATIONS USED IN REMARKS
   TC - TEMPERATURE IN CELSIUS
  WCI - WIND CHILL INDEX
   HX - HEAT INDEX
  VSB - VISIBILITY
$$





USA.gov is the U.S. government's official web portal to all federal, state and local government web resources and services.